THA828 VTBD-VTUU

Flight info

Callsign THA828
Flight time 0h 56m
Altitude 35000
Route ROBKA3C ROBKA A1 VENPO VENPO1D
Aircraft B77W/H-SDE1E2E3FGHIJ2J3J4J5M1RWXY/LB1D1

Departure

Time 2026-05-05 06:52
Airport Don Mueang International Airport (VTBD)

Arrival

Time 2026-05-05 07:49
Airport Ubon Ratchathani Airport (VTUU)
Time Latitude Longitude Altitude Speed Heading
2026-05-05 06:39 13.92628 100.60875 21 ft 0 kts 118°
2026-05-05 06:44 13.92633 100.60866 21 ft 2 kts 118°
2026-05-05 06:44 13.92640 100.60853 21 ft 2 kts 118°
2026-05-05 06:44 13.92644 100.60844 21 ft 1 kts 118°
2026-05-05 06:45 13.92649 100.60830 21 ft 2 kts 88°
2026-05-05 06:45 13.92645 100.60816 21 ft 2 kts 53°
2026-05-05 06:45 13.92637 100.60808 21 ft 0 kts 28°
2026-05-05 06:45 13.92634 100.60806 21 ft 0 kts 28°
2026-05-05 06:47 13.92662 100.60822 21 ft 11 kts 28°
2026-05-05 06:47 13.92733 100.60871 21 ft 11 kts 54°
2026-05-05 06:47 13.92726 100.60952 21 ft 12 kts 115°
2026-05-05 06:47 13.92686 100.61025 21 ft 11 kts 120°
2026-05-05 06:48 13.92620 100.61043 21 ft 10 kts 210°
2026-05-05 06:48 13.92554 100.61005 21 ft 10 kts 209°
2026-05-05 06:48 13.92487 100.60967 21 ft 11 kts 209°
2026-05-05 06:48 13.92419 100.60928 21 ft 11 kts 209°
2026-05-05 06:49 13.92350 100.60890 21 ft 12 kts 208°
2026-05-05 06:49 13.92259 100.60839 21 ft 17 kts 209°
2026-05-05 06:49 13.92118 100.60757 21 ft 22 kts 219°
2026-05-05 06:49 13.92130 100.60677 21 ft 11 kts 348°
2026-05-05 06:50 13.92212 100.60725 21 ft 14 kts 34°
2026-05-05 06:50 13.92325 100.60791 21 ft 23 kts 28°
2026-05-05 06:50 13.92466 100.60868 21 ft 22 kts 28°
2026-05-05 06:50 13.92599 100.60941 21 ft 20 kts 28°
2026-05-05 06:51 13.92680 100.61043 21 ft 20 kts 110°
2026-05-05 06:51 13.92606 100.61179 21 ft 49 kts 120°
2026-05-05 06:51 13.92447 100.61472 21 ft 42 kts 123°
2026-05-05 06:51 13.92321 100.61483 21 ft 22 kts 208°
2026-05-05 06:52 13.91894 100.61240 21 ft 124 kts 208°
2026-05-05 06:52 13.90863 100.60667 193 ft 204 kts 208°
2026-05-05 06:52 13.89528 100.59901 1318 ft 237 kts 210°
2026-05-05 06:52 13.88305 100.59113 3259 ft 204 kts 222°
2026-05-05 06:53 13.87451 100.57961 4062 ft 218 kts 246°
2026-05-05 06:53 13.86878 100.56428 4760 ft 238 kts 250°
2026-05-05 06:53 13.86347 100.54891 5960 ft 231 kts 249°
2026-05-05 06:53 13.85815 100.53348 6944 ft 233 kts 249°
2026-05-05 06:54 13.85276 100.51784 7696 ft 229 kts 249°
2026-05-05 06:54 13.84740 100.50230 7970 ft 231 kts 249°
2026-05-05 06:54 13.84171 100.48679 8007 ft 230 kts 241°
2026-05-05 06:54 13.83229 100.47351 8004 ft 229 kts 225°
2026-05-05 06:55 13.82152 100.46169 8015 ft 227 kts 224°
2026-05-05 06:55 13.81059 100.44989 8016 ft 229 kts 225°
2026-05-05 06:55 13.79900 100.43743 8495 ft 250 kts 222°
2026-05-05 06:55 13.78472 100.42645 9227 ft 262 kts 205°
2026-05-05 06:56 13.76776 100.42046 10138 ft 264 kts 187°
2026-05-05 06:56 13.74946 100.41991 11080 ft 265 kts 173°
2026-05-05 06:56 13.73103 100.42188 12039 ft 268 kts 172°
2026-05-05 06:56 13.71278 100.42467 12960 ft 271 kts 166°
2026-05-05 06:57 13.69449 100.43037 13806 ft 277 kts 157°
2026-05-05 06:57 13.67704 100.43903 14584 ft 282 kts 148°
2026-05-05 06:57 13.66091 100.45037 14893 ft 285 kts 140°
2026-05-05 06:57 13.64570 100.46526 14954 ft 315 kts 130°
2026-05-05 06:58 13.63246 100.48382 14939 ft 330 kts 119°
2026-05-05 06:58 13.62253 100.50540 14939 ft 333 kts 108°
2026-05-05 06:58 13.61680 100.52898 14946 ft 356 kts 98°
2026-05-05 06:58 13.61347 100.55531 14948 ft 377 kts 94°
2026-05-05 06:59 13.61344 100.58230 14948 ft 379 kts 84°
2026-05-05 06:59 13.61701 100.60911 14948 ft 379 kts 81°
2026-05-05 06:59 13.62100 100.63583 14955 ft 388 kts 81°
2026-05-05 06:59 13.62525 100.66441 15186 ft 415 kts 81°
2026-05-05 07:00 13.62966 100.69424 15942 ft 425 kts 81°
2026-05-05 07:00 13.63406 100.72422 16930 ft 427 kts 81°
2026-05-05 07:00 13.63849 100.75447 17772 ft 432 kts 81°
2026-05-05 07:00 13.64298 100.78516 18468 ft 441 kts 81°
2026-05-05 07:01 13.64756 100.81655 19130 ft 449 kts 81°
2026-05-05 07:01 13.65220 100.84838 19796 ft 456 kts 82°
2026-05-05 07:01 13.65691 100.88086 20615 ft 459 kts 81°
2026-05-05 07:01 13.66190 100.91356 21296 ft 465 kts 78°
2026-05-05 07:02 13.67030 100.94568 21884 ft 472 kts 70°
2026-05-05 07:02 13.68351 100.97718 22466 ft 479 kts 62°
2026-05-05 07:02 13.70128 101.00660 23085 ft 484 kts 53°
2026-05-05 07:02 13.72209 101.03401 23721 ft 489 kts 51°
2026-05-05 07:03 13.74397 101.06196 24354 ft 494 kts 50°
2026-05-05 07:03 13.76583 101.08991 24965 ft 500 kts 50°
2026-05-05 07:03 13.78824 101.11858 25578 ft 505 kts 50°
2026-05-05 07:03 13.81013 101.14661 26157 ft 510 kts 50°
2026-05-05 07:04 13.83233 101.17509 26826 ft 512 kts 50°
2026-05-05 07:04 13.85467 101.20377 27554 ft 513 kts 50°
2026-05-05 07:04 13.87721 101.23235 28421 ft 510 kts 48°
2026-05-05 07:04 13.90242 101.25792 29394 ft 504 kts 39°
2026-05-05 07:05 13.93054 101.27905 30279 ft 500 kts 31°
2026-05-05 07:05 13.96074 101.29682 31088 ft 498 kts 27°
2026-05-05 07:05 13.99118 101.31393 31888 ft 496 kts 27°
2026-05-05 07:05 14.02150 101.33090 32730 ft 493 kts 27°
2026-05-05 07:06 14.05152 101.34771 33601 ft 489 kts 27°
2026-05-05 07:06 14.08122 101.36434 34535 ft 485 kts 27°
2026-05-05 07:06 14.11082 101.38111 34956 ft 486 kts 30°
2026-05-05 07:06 14.13843 101.40105 34971 ft 471 kts 38°
2026-05-05 07:07 14.16226 101.42458 34981 ft 456 kts 47°
2026-05-05 07:07 14.18144 101.45007 34992 ft 441 kts 56°
2026-05-05 07:07 14.19644 101.47712 35000 ft 426 kts 64°
2026-05-05 07:07 14.20739 101.50462 35010 ft 410 kts 69°
2026-05-05 07:08 14.21688 101.53163 35015 ft 394 kts 69°
2026-05-05 07:08 14.22606 101.55795 35019 ft 377 kts 69°
2026-05-05 07:08 14.23474 101.58292 35027 ft 367 kts 69°
2026-05-05 07:09 14.25292 101.63543 35040 ft 387 kts 69°
2026-05-05 07:09 14.26206 101.66199 35040 ft 398 kts 70°
2026-05-05 07:09 14.27137 101.68908 35036 ft 409 kts 70°
2026-05-05 07:09 14.28112 101.71748 35033 ft 421 kts 70°
2026-05-05 07:10 14.29096 101.74618 35031 ft 433 kts 70°
2026-05-05 07:10 14.30125 101.77621 35034 ft 445 kts 70°
2026-05-05 07:10 14.31159 101.80641 35035 ft 457 kts 70°
2026-05-05 07:10 14.32231 101.83774 35044 ft 469 kts 70°
2026-05-05 07:11 14.33327 101.86977 35051 ft 481 kts 70°
2026-05-05 07:11 14.34451 101.90268 35050 ft 492 kts 70°
2026-05-05 07:11 14.35580 101.93578 35048 ft 477 kts 70°
2026-05-05 07:11 14.36649 101.96714 35043 ft 461 kts 70°
2026-05-05 07:12 14.37685 101.99755 35040 ft 445 kts 70°
2026-05-05 07:12 14.38703 102.02741 35033 ft 429 kts 70°
2026-05-05 07:12 14.39669 102.05578 35024 ft 416 kts 70°
2026-05-05 07:13 14.41592 102.11226 35015 ft 420 kts 70°
2026-05-05 07:13 14.43514 102.16875 35005 ft 418 kts 70°
2026-05-05 07:14 14.45439 102.22539 34997 ft 419 kts 70°
2026-05-05 07:14 14.47368 102.28218 34989 ft 418 kts 70°
2026-05-05 07:15 14.49281 102.33858 34981 ft 418 kts 70°
2026-05-05 07:15 14.51199 102.39516 34982 ft 418 kts 70°
2026-05-05 07:16 14.53117 102.45180 34988 ft 419 kts 71°
2026-05-05 07:16 14.55033 102.50842 34990 ft 418 kts 70°
2026-05-05 07:17 14.56939 102.56480 34992 ft 420 kts 70°
2026-05-05 07:17 14.58885 102.62243 34973 ft 425 kts 70°
2026-05-05 07:18 14.60845 102.68052 34965 ft 424 kts 70°
2026-05-05 07:18 14.62785 102.73805 34967 ft 427 kts 70°
2026-05-05 07:19 14.64732 102.79589 34960 ft 424 kts 70°
2026-05-05 07:19 14.66666 102.85340 34962 ft 425 kts 70°
2026-05-05 07:20 14.68600 102.91101 34962 ft 424 kts 70°
2026-05-05 07:20 14.70529 102.96847 34960 ft 424 kts 70°
2026-05-05 07:21 14.72447 103.02570 34950 ft 424 kts 70°
2026-05-05 07:21 14.74389 103.08368 34956 ft 425 kts 70°
2026-05-05 07:22 14.76313 103.14117 34958 ft 424 kts 70°
2026-05-05 07:22 14.78235 103.19864 34958 ft 425 kts 70°
2026-05-05 07:23 14.80154 103.25610 34957 ft 424 kts 70°
2026-05-05 07:23 14.82084 103.31390 34961 ft 426 kts 70°
2026-05-05 07:24 14.84015 103.37183 34962 ft 425 kts 70°
2026-05-05 07:24 14.85974 103.43060 34966 ft 446 kts 70°
2026-05-05 07:24 14.86892 103.46139 34969 ft 458 kts 73°
2026-05-05 07:25 14.87756 103.49378 34979 ft 471 kts 74°
2026-05-05 07:25 14.88631 103.52658 34957 ft 482 kts 74°
2026-05-05 07:25 14.89549 103.56087 34300 ft 503 kts 74°
2026-05-05 07:25 14.90485 103.59564 33288 ft 511 kts 74°
2026-05-05 07:26 14.91439 103.63104 32337 ft 515 kts 73°
2026-05-05 07:26 14.92415 103.66718 31401 ft 517 kts 74°
2026-05-05 07:26 14.93381 103.70294 30521 ft 517 kts 74°
2026-05-05 07:26 14.94340 103.73843 29992 ft 510 kts 74°
2026-05-05 07:27 14.95274 103.77298 29481 ft 504 kts 74°
2026-05-05 07:27 14.96213 103.80773 28903 ft 499 kts 74°
2026-05-05 07:27 14.97143 103.84222 28293 ft 495 kts 74°
2026-05-05 07:27 14.98052 103.87592 27691 ft 491 kts 74°
2026-05-05 07:28 14.98976 103.91016 27077 ft 488 kts 74°
2026-05-05 07:28 14.99875 103.94353 26469 ft 484 kts 74°
2026-05-05 07:28 15.00771 103.97678 25859 ft 481 kts 74°
2026-05-05 07:28 15.01666 104.01005 25242 ft 478 kts 74°
2026-05-05 07:29 15.02549 104.04289 24624 ft 474 kts 74°
2026-05-05 07:29 15.03426 104.07549 24002 ft 471 kts 74°
2026-05-05 07:29 15.04299 104.10796 23384 ft 468 kts 74°
2026-05-05 07:29 15.05173 104.14053 22794 ft 464 kts 74°
2026-05-05 07:30 15.06033 104.17255 22187 ft 462 kts 74°
2026-05-05 07:30 15.07772 104.23739 20903 ft 456 kts 74°
2026-05-05 07:30 15.08613 104.26877 20265 ft 454 kts 75°
2026-05-05 07:31 15.09452 104.30009 19629 ft 451 kts 75°
2026-05-05 07:31 15.10293 104.33150 18984 ft 448 kts 75°
2026-05-05 07:31 15.11259 104.36214 18342 ft 444 kts 67°
2026-05-05 07:31 15.12644 104.39017 17619 ft 428 kts 59°
2026-05-05 07:32 15.14159 104.41571 17072 ft 410 kts 58°
2026-05-05 07:32 15.15623 104.44011 16514 ft 394 kts 58°
2026-05-05 07:32 15.17057 104.46401 15944 ft 380 kts 58°
2026-05-05 07:32 15.18438 104.48702 15424 ft 384 kts 58°
2026-05-05 07:33 15.19850 104.51057 14881 ft 392 kts 58°
2026-05-05 07:33 15.21284 104.53448 14307 ft 389 kts 58°
2026-05-05 07:33 15.22673 104.55770 13841 ft 371 kts 58°
2026-05-05 07:33 15.24001 104.57990 13491 ft 351 kts 58°
2026-05-05 07:34 15.25251 104.60074 13230 ft 332 kts 58°
2026-05-05 07:34 15.26479 104.62122 13030 ft 312 kts 58°
2026-05-05 07:34 15.27589 104.63973 12851 ft 295 kts 58°
2026-05-05 07:34 15.28668 104.65775 12430 ft 288 kts 58°
2026-05-05 07:35 15.29710 104.67518 12096 ft 278 kts 58°
2026-05-05 07:35 15.30694 104.69162 12022 ft 260 kts 58°
2026-05-05 07:35 15.31640 104.70744 11581 ft 260 kts 58°
2026-05-05 07:35 15.32599 104.72348 11031 ft 262 kts 59°
2026-05-05 07:36 15.33551 104.73940 10692 ft 260 kts 59°
2026-05-05 07:36 15.34492 104.75513 10406 ft 258 kts 59°
2026-05-05 07:36 15.35440 104.77099 10131 ft 256 kts 59°
2026-05-05 07:36 15.36368 104.78651 9828 ft 256 kts 59°
2026-05-05 07:37 15.37310 104.80227 9519 ft 255 kts 59°
2026-05-05 07:37 15.38243 104.81789 9229 ft 254 kts 59°
2026-05-05 07:37 15.39175 104.83349 8966 ft 252 kts 59°
2026-05-05 07:37 15.40089 104.84880 8656 ft 253 kts 60°
2026-05-05 07:38 15.41013 104.86427 8376 ft 252 kts 60°
2026-05-05 07:38 15.41940 104.87981 8071 ft 252 kts 59°
2026-05-05 07:38 15.42855 104.89513 7792 ft 251 kts 60°
2026-05-05 07:38 15.43776 104.91057 7515 ft 250 kts 60°
2026-05-05 07:39 15.44416 104.92712 7154 ft 249 kts 84°
2026-05-05 07:39 15.44278 104.94472 6757 ft 248 kts 111°
2026-05-05 07:39 15.43385 104.95967 6447 ft 243 kts 135°
2026-05-05 07:39 15.42144 104.97128 6251 ft 235 kts 140°
2026-05-05 07:40 15.40950 104.98133 5986 ft 209 kts 141°
2026-05-05 07:40 15.39871 104.99020 5711 ft 194 kts 142°
2026-05-05 07:40 15.38803 104.99895 5173 ft 195 kts 142°
2026-05-05 07:40 15.37918 105.00931 4629 ft 196 kts 114°
2026-05-05 07:41 15.37804 105.02299 4118 ft 197 kts 77°
2026-05-05 07:41 15.38536 105.03482 3669 ft 195 kts 45°
2026-05-05 07:41 15.39644 105.04290 3536 ft 198 kts 30°
2026-05-05 07:41 15.40941 105.04799 3516 ft 199 kts 15°
2026-05-05 07:42 15.42329 105.04967 3496 ft 206 kts 360°
2026-05-05 07:42 15.43789 105.04451 3492 ft 235 kts 322°
2026-05-05 07:42 15.44666 105.03030 3446 ft 239 kts 284°
2026-05-05 07:42 15.44635 105.01440 3398 ft 206 kts 253°
2026-05-05 07:43 15.43981 105.00227 3361 ft 190 kts 226°
2026-05-05 07:43 15.42928 104.99445 3342 ft 184 kts 202°
2026-05-05 07:43 15.41727 104.98950 3331 ft 181 kts 200°
2026-05-05 07:43 15.40554 104.98482 3319 ft 180 kts 200°
2026-05-05 07:44 15.39376 104.98012 3321 ft 180 kts 200°
2026-05-05 07:44 15.38214 104.97549 3314 ft 179 kts 200°
2026-05-05 07:44 15.37031 104.97078 3248 ft 179 kts 200°
2026-05-05 07:44 15.35863 104.96613 3229 ft 179 kts 200°
2026-05-05 07:45 15.34688 104.96145 3238 ft 180 kts 200°
2026-05-05 07:45 15.33524 104.95681 3233 ft 179 kts 200°
2026-05-05 07:45 15.32364 104.95219 3200 ft 173 kts 200°
2026-05-05 07:45 15.31288 104.94782 2639 ft 171 kts 202°
2026-05-05 07:46 15.30435 104.93949 2039 ft 171 kts 240°
2026-05-05 07:46 15.29773 104.92893 2055 ft 178 kts 223°
2026-05-05 07:46 15.28906 104.91948 1718 ft 182 kts 228°
2026-05-05 07:46 15.28203 104.91007 1295 ft 165 kts 229°
2026-05-05 07:47 15.27957 104.90694 1138 ft 161 kts 228°
2026-05-05 07:47 15.27919 104.90646 1116 ft 161 kts 228°
2026-05-05 07:48 15.27497 104.90119 776 ft 160 kts 230°
2026-05-05 07:48 15.26740 104.89124 678 ft 180 kts 230°
2026-05-05 07:48 15.25996 104.88163 461 ft 169 kts 229°
2026-05-05 07:48 15.25310 104.87273 407 ft 138 kts 230°
2026-05-05 07:49 15.24940 104.86777 414 ft 30 kts 232°
2026-05-05 07:49 15.24783 104.86787 418 ft 24 kts 143°
2026-05-05 07:49 15.24737 104.86912 419 ft 20 kts 38°
2026-05-05 07:49 15.24809 104.86994 417 ft 2 kts 95°
2026-05-05 07:50 15.24780 104.87022 418 ft 0 kts 140°